GALILEO B

Last updated on Fri Dec 19 2025 00:02:10 GMT+0000 (Coordinated Universal Time)

1 67161U 25302B 25352.14578625 -.00000007 00000+0 00000+0 0 9994 2 67161 54.2283 107.2235 0004929 250.9394 108.9662 1.72967481 33
UTC large
Height (km)
Speed (km/s)
/
Latitude / Longitude
Inclination (degrees)
Orbital Period (minutes)
Azimuth
Elevation
Range (km)
Doppler Factor

Next 0 passes for location: London (51.5072 / 0.1276)

Sorry there are no passes over London.